www.pogodaiklimat.ru

Погода и климат >> Архив погоды >> Австралия >> Marree Aero


ПОГОДА в Marree Aero

  • Прогноз погоды в Marree Aero
  • Монитор погоды в Marree Aero
  • Климат города

АРХИВ ПОГОДЫ в Marree Aero

Время (UTC), дата Ветер
(напр.,м/с)
 
Видим.   Явления Облачность Т
(С)
Тd
(С)
f
(%)
Тe
(С)
Тes
(С)
Комфортность P
(гПа)
Po
(гПа)
Тmin
(С)
Tmax
(С)
R
(мм)
R24
(мм)
S
(см)
01 16.10 СВ 9 н/о н/о +31.7 +8.7 24 +31 +31 жарко 1016.9 1011.0
02 16.10 СВ 9 н/о н/о +32.4 +7.3 21 +31 +31 жарко 1016.1 1010.2
03 16.10 В 8 н/о н/о +33.5 +5.9 18 +31 +31 жарко 1015.4 1009.5
05 16.10 В 8 н/о н/о +33.7 +4.4 16 +31 +31 жарко 1013.7 1007.8
04 16.10 В 8 н/о н/о +33.9 +5.4 17 +32 +32 жарко 1014.5 1008.6
06 16.10 В 9 н/о н/о +32.9 +4.6 17 +30 +30 жарко 1013.3 1007.4
07 16.10 В 7 н/о н/о +33.1 +3.0 15 +30 +30 жарко 1013.2 1007.3
08 16.10 В 7 н/о н/о +31.8 +2.9 16 +29 +29 жарко 1013.6 1007.7
09 16.10 В 8 н/о н/о +30.4 +3.4 18 +28 +28 жарко 1014.1 1008.2
11 16.10 В 5 н/о н/о +26.7 +4.5 24 +26 +26 жарко 1015.6 1009.7
10 16.10 В 6 н/о н/о +28.7 +4.2 21 +27 +27 жарко 1014.7 1008.8
12 16.10 В 4 н/о н/о +25.1 +4.8 27 +25 +25 комфорт 1016.1 1010.2
13 16.10 В 4 н/о н/о +23.3 +4.8 30 +23 +23 комфорт 1016.1 1010.2
14 16.10 В 4 н/о н/о +20.8 +4.4 34 +22 +22 комфорт 1015.9 1010.0
15 16.10 В 4 н/о н/о +22.3 +5.7 34 +23 +23 комфорт 1015.6 1009.7
17 16.10 В 5 н/о н/о +22.0 +6.7 37 +23 +23 комфорт 1014.8 1008.9
16 16.10 В 4 н/о н/о +21.7 +5.6 35 +22 +22 комфорт 1015.2 1009.3
18 16.10 В 5 н/о н/о +21.3 +6.8 39 +22 +22 комфорт 1015.1 1009.2
19 16.10 В 3 н/о н/о +20.6 +7.2 42 +22 +22 комфорт 1015.5 1009.6
20 16.10 ЮВ 4 н/о н/о +18.3 +7.1 48 +18 +18 1016.2 1010.3
21 16.10 ЮВ 3 н/о н/о +20.8 +7.8 43 +22 +22 комфорт 1016.6 1010.7
23 16.10 В 9 н/о н/о +25.9 +10.5 38 +27 +27 жарко 1016.7 1010.8
22 16.10 В 7 н/о н/о +24.5 +9.3 38 +25 +25 комфорт 1016.8 1010.9
00 17.10 СВ 9 н/о н/о +27.3 +10.5 35 +28 +28 жарко 1016.4 1010.5
01 17.10 СВ 8 н/о н/о +29.2 +11.3 33 +30 +30 жарко 1015.9 1010.0
02 17.10 СВ 7 н/о н/о +29.2 +11.7 34 +30 +30 жарко 1014.9 1009.0
03 17.10 СВ 8 н/о н/о +31.2 +11.1 29 +31 +31 жарко 1013.8 1007.9
05 17.10 СВ 8 н/о н/о +32.1 +10.8 27 +32 +32 жарко 1012.2 1006.3
04 17.10 СВ 7 н/о н/о +32.1 +11.3 28 +32 +32 жарко 1012.8 1006.9
06 17.10 В 8 н/о н/о +32.5 +10.5 26 +32 +32 жарко 1011.8 1005.9
07 17.10 СВ 7 н/о н/о +32.5 +9.9 25 +32 +32 жарко 1011.9 1006.0
08 17.10 СВ 7 н/о н/о +31.3 +10.1 27 +31 +31 жарко 1012.2 1006.3
09 17.10 СВ 6 н/о н/о +31.0 +10.4 28 +31 +31 жарко 1012.7 1006.8
11 17.10 СВ 4 н/о н/о +28.2 +10.4 33 +29 +29 жарко 1014.1 1008.2
10 17.10 СВ 6 н/о н/о +29.7 +10.8 31 +30 +30 жарко 1013.4 1007.5
12 17.10 В 2 н/о н/о +25.7 +9.9 37 +26 +26 жарко 1014.6 1008.7
13 17.10 штиль 0 н/о н/о +24.3 +9.5 39 +25 +25 комфорт 1014.7 1008.8
14 17.10 В 4 н/о н/о +23.0 +9.4 42 +25 +25 комфорт 1014.6 1008.7
15 17.10 В 5 н/о н/о +23.8 +10.5 43 +25 +25 комфорт 1014.4 1008.5
17 17.10 СВ 4 н/о н/о +23.8 +10.8 44 +25 +25 комфорт 1013.8 1007.9
16 17.10 В 5 н/о н/о +24.6 +10.8 42 +26 +26 жарко 1014.0 1008.1
18 17.10 В 4 н/о н/о +22.0 +10.5 48 +24 +24 комфорт 1013.9 1008.0
19 17.10 В 3 н/о н/о +21.5 +10.6 50 +23 +23 комфорт 1014.4 1008.5
20 17.10 В 3 н/о н/о +21.5 +11.2 52 +23 +23 комфорт 1015.1 1009.2
21 17.10 В 3 н/о н/о +22.8 +11.8 50 +25 +25 комфорт 1015.9 1010.0
23 17.10 СВ 9 н/о н/о +27.5 +13.8 43 +30 +30 жарко 1016.2 1010.3
22 17.10 СВ 8 н/о н/о +25.7 +13.5 47 +28 +28 жарко 1016.1 1010.2
00 18.10 СВ 9 н/о н/о +28.3 +13.8 41 +30 +30 жарко 1015.9 1010.0
01 18.10 С 8 н/о н/о +29.5 +13.3 37 +31 +31 жарко 1015.1 1009.2
02 18.10 СВ 7 н/о н/о +30.9 +12.8 33 +32 +32 жарко 1014.5 1008.6
03 18.10 В 7 н/о н/о +32.7 +12.9 30 +33 +33 жарко 1013.5 1007.6
05 18.10 В 6 н/о н/о +33.7 +10.9 25 +33 +33 жарко 1011.9 1006.0
04 18.10 СВ 7 н/о н/о +33.2 +11.7 27 +33 +33 жарко 1012.8 1006.9
06 18.10 СВ 5 н/о н/о +34.0 +11.2 25 +34 +34 очень
жарко
1011.5 1005.6
07 18.10 В 5 н/о н/о +34.5 +11.0 24 +34 +34 очень
жарко
1011.6 1005.7
08 18.10 СВ 5 н/о н/о +33.4 +11.3 26 +33 +33 жарко 1012.0 1006.1
09 18.10 СВ 4 н/о н/о +32.3 +11.5 28 +32 +32 жарко 1012.7 1006.8
11 18.10 В 3 н/о н/о +28.7 +11.3 34 +29 +29 жарко 1014.5 1008.6
10 18.10 СВ 4 н/о н/о +30.7 +11.1 30 +31 +31 жарко 1013.5 1007.6
12 18.10 В 4 н/о н/о +27.3 +11.3 37 +28 +28 жарко 1015.1 1009.2
13 18.10 ЮВ 3 н/о н/о +25.2 +11.0 41 +26 +26 жарко 1015.4 1009.5
14 18.10 В 3 н/о н/о +24.0 +10.7 43 +25 +25 комфорт 1015.1 1009.2
15 18.10 В 3 н/о н/о +24.3 +11.3 44 +26 +26 жарко 1014.6 1008.7
17 18.10 В 5 н/о н/о +24.9 +12.8 47 +27 +27 жарко 1013.5 1007.6
16 18.10 В 4 н/о н/о +23.2 +11.3 47 +25 +25 комфорт 1014.0 1008.1
18 18.10 Ю 2 н/о н/о +22.2 +11.9 52 +25 +25 комфорт 1013.8 1007.9
19 18.10 В 4 н/о н/о +24.5 +13.1 49 +27 +27 жарко 1014.3 1008.4
20 18.10 В 3 н/о н/о +23.3 +13.5 54 +27 +27 душно 1015.5 1009.6
21 18.10 В 3 н/о н/о +24.9 +13.8 50 +27 +27 жарко 1016.4 1010.5
23 18.10 С 5 н/о н/о +30.5 +15.0 39 +33 +33 душно 1017.2 1011.3
22 18.10 ЮВ 2 н/о н/о +27.7 +14.3 44 +30 +30 жарко 1017.1 1011.2
00 19.10 С 3 н/о н/о +32.2 +14.8 35 +34 +34 душно 1017.5 1011.6
01 19.10 ЮЗ 6 н/о н/о +34.0 +14.5 31 +35 +35 очень
жарко
1017.1 1011.2
02 19.10 СЗ 5 н/о н/о +34.9 +14.2 29 +36 +36 душно 1016.8 1010.9
03 19.10 ЮВ 7 н/о н/о +35.0 +13.2 27 +35 +35 очень
жарко
1016.3 1010.4
05 19.10 Ю 10 н/о н/о +34.5 +13.9 29 +35 +35 очень
жарко
1015.9 1010.0
04 19.10 ЮЗ 12 н/о н/о +33.4 +14.0 31 +35 +35 душно 1016.1 1010.2
06 19.10 Ю 12 н/о н/о +34.3 +13.7 29 +35 +35 очень
жарко
1015.7 1009.8
07 19.10 Ю 14 н/о н/о +31.8 +12.1 30 +32 +32 жарко 1016.3 1010.4
08 19.10 Ю 16 н/о н/о +28.7 +10.8 33 +29 +29 жарко 1017.4 1011.5
09 19.10 Ю 13 н/о н/о +26.9 +11.4 38 +28 +28 жарко 1018.5 1012.6
11 19.10 С 9 н/о н/о +24.5 +11.5 44 +26 +26 жарко 1020.2 1014.3
10 19.10 Ю 11 н/о н/о +25.1 +11.6 43 +27 +27 жарко 1019.3 1013.4
12 19.10 З 11 н/о н/о +21.9 +13.0 57 +25 +25 комфорт 1020.8 1014.9
13 19.10 С 9 н/о н/о +20.9 +13.4 62 +23 +23 комфорт 1021.6 1015.7
14 19.10 С 10 н/о н/о +20.6 +11.8 57 +22 +22 комфорт 1021.9 1016.0
15 19.10 Ю 9 н/о н/о +20.4 +8.1 45 +21 +21 комфорт 1021.9 1016.0
17 19.10 СВ 8 н/о н/о +17.9 +7.0 49 +17 +17 1022.6 1016.7
16 19.10 В 7 н/о н/о +19.3 +7.1 45 +19 +19 1022.7 1016.8
18 19.10 Ю 9 н/о н/о +16.9 +7.8 55 +16 +16 1023.1 1017.1
19 19.10 СВ 8 н/о н/о +16.5 +7.7 56 +15 +15 1023.6 1017.6
20 19.10 Ю 8 н/о н/о +15.6 +7.4 58 +14 +14 1024.2 1018.2
21 19.10 Ю 9 н/о н/о +16.2 +7.2 55 +15 +15 1025.0 1019.0
23 19.10 ЮВ 10 н/о н/о +19.2 +6.7 44 +19 +19 1026.0 1020.0
22 19.10 Ю 10 н/о н/о +18.1 +7.5 50 +17 +17 1025.4 1019.4
00 20.10 ЮВ 9 н/о н/о +21.6 +5.1 34 +22 +22 комфорт 1026.2 1020.2
01 20.10 ЮВ 8 н/о н/о +24.2 +3.5 26 +24 +24 комфорт 1026.0 1020.0
02 20.10 В 8 н/о н/о +25.8 +1.8 21 +24 +24 комфорт 1025.2 1019.2
03 20.10 ЮВ 7 н/о н/о +26.7 -0.3 17 +25 +25 комфорт 1024.5 1018.5
05 20.10 Ю 6 н/о н/о +28.5 -0.6 15 +26 +26 жарко 1022.5 1016.6
04 20.10 ЮВ 6 н/о н/о +27.9 -2.0 14 +25 +25 комфорт 1023.6 1017.6
06 20.10 Ю 6 н/о н/о +29.5 -1.8 13 +26 +26 жарко 1022.0 1016.1
07 20.10 Ю 6 н/о н/о +28.9 -2.3 13 +26 +26 жарко 1021.7 1015.8
08 20.10 Ю 6 н/о н/о +28.3 -2.7 13 +25 +25 комфорт 1021.8 1015.9
09 20.10 Ю 8 н/о н/о +26.5 -1.3 16 +24 +24 комфорт 1022.3 1016.4
11 20.10 Ю 7 н/о н/о +23.3 +2.7 26 +23 +23 комфорт 1024.2 1018.2
10 20.10 Ю 5 н/о н/о +24.3 -1.5 18 +23 +23 комфорт 1023.4 1017.4
12 20.10 Ю 6 н/о н/о +21.7 +1.4 26 +21 +21 комфорт 1024.8 1018.8
13 20.10 Ю 6 н/о н/о +20.1 +1.0 28 +20 +20 1025.0 1019.0
14 20.10 Ю 6 н/о н/о +18.6 +1.2 31 +18 +18 1025.1 1019.1
15 20.10 Ю 6 н/о н/о +17.7 +0.8 32 +17 +17 1024.9 1018.9
17 20.10 ЮВ 4 н/о н/о +15.0 +0.1 36 +14 +14 1024.6 1018.6
16 20.10 Ю 5 н/о н/о +16.6 +0.7 34 +16 +16 1024.7 1018.7
18 20.10 ЮВ 5 н/о н/о +12.3 -0.6 41 +11 +11 1024.7 1018.7
19 20.10 ЮВ 4 н/о н/о +11.2 -0.3 45 +10 +10 1024.8 1018.8
20 20.10 ЮВ 5 н/о н/о +10.1 +0.2 50 +8 +8 1025.0 1019.0
21 20.10 ЮВ 4 н/о н/о +13.9 +2.2 45 +13 +13 1025.5 1019.5
23 20.10 ЮВ 6 н/о н/о +19.8 +1.7 30 +20 +20 1026.1 1020.1
22 20.10 ЮВ 6 н/о н/о +17.7 +2.1 35 +17 +17 1026.0 1020.0
00 21.10 ЮВ 5 н/о н/о +21.3 +2.6 29 +21 +21 комфорт 1026.0 1020.0
01 21.10 В 4 н/о н/о +22.2 +1.3 25 +22 +22 комфорт 1025.6 1019.6
02 21.10 С 3 н/о н/о +23.6 +0.7 22 +23 +23 комфорт 1024.6 1018.6
03 21.10 СЗ 3 н/о н/о +26.0 -0.1 18 +24 +24 комфорт 1023.5 1017.5
05 21.10 С 6 н/о н/о +28.0 -1.0 15 +25 +25 комфорт 1021.3 1015.4
04 21.10 СВ 4 н/о н/о +27.1 -2.7 14 +25 +25 комфорт 1022.5 1016.6
06 21.10 ЮВ 6 н/о н/о +28.5 -2.6 13 +26 +26 жарко 1020.4 1014.5
07 21.10 Ю 6 н/о н/о +28.4 +0.2 16 +26 +26 жарко 1020.3 1014.4
08 21.10 Ю 7 н/о н/о +27.2 +0.1 17 +25 +25 комфорт 1020.1 1014.2
09 21.10 Ю 8 н/о н/о +25.5 -1.3 17 +24 +24 комфорт 1020.4 1014.5
11 21.10 Ю 6 н/о н/о +22.3 -4.7 16 +21 +21 комфорт 1021.0 1015.1
10 21.10 Ю 6 н/о н/о +23.7 -2.0 18 +22 +22 комфорт 1020.6 1014.7
12 21.10 Ю 7 н/о н/о +21.7 -1.6 21 +21 +21 комфорт 1021.1 1015.2
13 21.10 Ю 9 н/о н/о +20.4 -1.4 23 +20 +20 1021.1 1015.2
14 21.10 Ю 8 н/о н/о +18.9 +4.3 38 +18 +18 1020.6 1014.7
15 21.10 Ю 7 н/о н/о +17.3 +7.6 53 +16 +16 1020.0 1014.1
17 21.10 Ю 5 н/о н/о +15.4 +6.9 57 +14 +14 1019.7 1013.8
16 21.10 Ю 6 н/о н/о +16.4 +7.9 57 +15 +15 1019.8 1013.9
18 21.10 Ю 4 н/о н/о +14.1 +6.7 61 +13 +13 1019.7 1013.8
19 21.10 Ю 4 н/о н/о +12.7 +6.3 65 +11 +11 1019.7 1013.8
20 21.10 Ю 5 н/о н/о +12.0 +5.9 66 +10 +10 1020.3 1014.4
21 21.10 Ю 3 н/о н/о +13.4 +5.8 60 +12 +12 1020.7 1014.8
23 21.10 ЮВ 6 н/о н/о +19.2 +4.6 38 +19 +19 1021.5 1015.6
22 21.10 ЮВ 6 н/о н/о +16.8 +5.4 47 +16 +16 1021.0 1015.1
00 22.10 С 4 н/о н/о +20.7 +3.4 32 +21 +21 комфорт 1021.3 1015.4
01 22.10 СВ 3 н/о н/о +22.1 +2.8 28 +22 +22 комфорт 1021.1 1015.2
02 22.10 С 3 н/о н/о +24.1 +2.3 24 +23 +23 комфорт 1020.1 1014.2
03 22.10 С 4 н/о н/о +26.5 -0.5 17 +24 +24 комфорт 1019.2 1013.3
05 22.10 СЗ 7 н/о н/о +28.1 -1.9 14 +25 +25 комфорт 1017.2 1011.3
04 22.10 З 5 н/о н/о +26.3 -0.7 17 +24 +24 комфорт 1018.1 1012.2
06 22.10 ЮЗ 7 н/о н/о +27.2 -4.6 12 +24 +24 комфорт 1016.8 1010.9
07 22.10 Ю 7 н/о н/о +27.1 -8.5 9 +24 +24 комфорт 1016.7 1010.8
08 22.10 Ю 7 н/о н/о +25.9 -8.0 10 +23 +23 комфорт 1016.8 1010.9
09 22.10 Ю 5 н/о н/о +24.2 -8.1 11 +22 +22 комфорт 1017.2 1011.3
11 22.10 ЮЗ 3 н/о н/о +18.3 -5.7 19 +18 +18 1017.9 1012.0
10 22.10 Ю 4 н/о н/о +21.2 -5.6 16 +20 +20 1017.4 1011.5
12 22.10 ЮЗ 3 н/о н/о +16.7 -5.7 21 +17 +17 1018.2 1012.3
13 22.10 Ю 5 н/о н/о +18.1 -0.2 29 +18 +18 1017.9 1012.0
14 22.10 ЮВ 4 н/о н/о +18.0 +0.2 30 +18 +18 1018.3 1012.4
15 22.10 ЮВ 3 н/о н/о +15.9 -0.8 32 +16 +16 1018.3 1012.4
17 22.10 ЮЗ 3 н/о н/о +12.8 -0.1 41 +12 +12 1017.6 1011.7
16 22.10 С 3 н/о н/о +14.2 -0.6 36 +14 +14 1017.9 1012.0
18 22.10 ЮВ 2 н/о н/о +12.0 -0.2 43 +11 +11 1017.8 1011.9
19 22.10 В 4 н/о н/о +11.2 0.0 46 +9 +9 1017.9 1012.0
20 22.10 ЮВ 4 н/о н/о +10.4 +0.4 50 +8 +8 1018.1 1012.2
21 22.10 В 3 н/о н/о +14.2 +4.5 52 +14 +14 1018.6 1012.7
23 22.10 СВ 7 н/о н/о +22.7 +1.7 25 +22 +22 комфорт 1018.9 1013.0
22 22.10 В 3 н/о н/о +19.0 +3.2 35 +20 +20 1018.9 1013.0

 

Местоположение метеостанции Marree Aero (Южная Австралия, Австралия): широта -29.66 долгота 138.06 высота над уровнем моря 51 м.

В архиве по умолчанию представлена погода в Marree Aero за последнюю неделю. Архивные данные за месяц целиком и за предыдущие месяцы, начиная с января 2011 года, Вы можете получить, выбрав интересующий диапазон дат из раскрывающегося списка и нажав кнопку "Ввод!".

Внимание! Время в таблицах - всемирное. Для получения местного времени необходимо прибавить поправку, которая в Marree Aero равна 9.5 ч.

Смотрите также архив погоды в соседних городах и на ближайших метеорологических станциях:

Погода в Leigh Creek Airport (Южная Австралия, Австралия) (110 км)
Погода в Olympic Dam Aerodrome (Южная Австралия, Австралия) (146 км)
Погода в Woomera Aerodrome (Южная Австралия, Австралия) (205 км)
Погода в Moomba Airport (Южная Австралия, Австралия) (271 км)
Погода в Port Augusta Arid Lands (Южная Австралия, Австралия) (320 км)
Погода в Coober Pedy Airport (Южная Австралия, Австралия) (332 км)
Погода в Oodnadatta Airport (Южная Австралия, Австралия) (346 км)
Погода в Yunta Airstrip (Южная Австралия, Австралия) (354 км)
Погода в Tarcoola Aero (Южная Австралия, Австралия) (355 км)
Погода в Whyalla Airport (Южная Австралия, Австралия) (383 км)

Пояснения к столбцам:

Ветер - указаны скорость ветра в м/с - средняя за 10 мин, порывы в срок и между сроками (в фигурных скобках) и направление, откуда дует ветер: С - северный, СВ - северо-восточный, В - восточный, ЮВ - юго-восточный, Ю - южный, ЮЗ - юго-западный, З - западный, СЗ - северо-западный.
Видимость - горизонтальная дальность видимости в метрах или километрах. При видимости от 1 до 10 км при отсутствии осадков обычно наблюдается дымка, при ухудшении видимости до 1 км и менее - туман. В сухую погоду видимость может ухудшаться дымом, пылью или мглою.
Явления - указаны атмосферные явления, наблюдавшиеся в срок или в последний час перед сроком; фигурными скобками обозначены явления, наблюдавшиеся между сроками (за 1-3 часа до срока); квадратными скобками обозначены град или гололедные отложения с указанием их диаметра в мм.
Облачность - указаны через наклонную черту общая и нижняя облачность в баллах и высота нижней границы облаков в метрах; квадратными скобками обозначены формы облаков: Ci - перистые, Cs - перисто-слоистые, Cc - перисто-кучевые, Ac - высококучевые, As - высокослоистые, Sc - слоисто-кучевые, Ns - слоисто-дождевые, Cu - кучевые, Cb - кучево-дождевые. Подробнее классификацию облаков см. в Атласе облаков (PDF).
T - Температура воздуха - температура, измеренная на высоте 2 м над землей.
Td - Температура точки росы - температура, при понижении до которой содержащийся в воздухе водяной пар достигнет насыщения.
f - Относительная влажность воздуха - влажноcть воздуха, измеренная на высоте 2 м над землей.
Te - Эффективная температура - температура, которую ощущает одетый по сезону человек в тени. Характеристика душности погоды. При расчете учитывается влияние влажности воздуха и скорости ветра на теплоощущения человека.
Tes - Эффективная температура на солнце - температура, которую ощущает человек, с поправкой на солнечный нагрев. Характеристика знойности погоды. Зависит от высоты солнца над горизонтом, облачности и скорости ветра. Ночью, в пасмурную погоду, а также при ветре 12 м/с и более поправка равна нулю.
P - Атмосферное давление - приведенное к уровню моря атмосферное давление.
Po - Атмосферное давление - измеренное на уровне метеостанции атмосферное давление.
Tmin - Минимальная температура - минимум температуры воздуха на высоте 2 м над землей.
Tmax - Максимальная температура - максимум температуры воздуха на высоте 2 м над землей.
R - Количество осадков - Количество выпавших осадков за период времени, мм. При наведении курсора мыши на число - период времени, за который выпало указанное количество осадков.
R24 - Количество осадков - Количество выпавших осадков за 24 часа, мм.
S - Снежный покров - Высота снежного покрова, см. При наведении курсора мыши на число - состояние снежного покрова и степень покрытия местности в баллах.